Вернуться в каталог

SL-8 DEB

АктивенVLEO
NORAD 11114·DEBRIS·🇷🇺 Russia

Запущен Nov 16, 1978 с Plesetsk Cosmodrome

Loading…

Ближайшие Пролёты (ближайшие 24 часа)

TLE

СвежийSource: Space-Track

Эпоха: Sep 14, 2026, 04:23 UTC

1 11114U 78105D   26257.18291500  .00011845  00000-0  55624-3 0  9991
2 11114  73.9977 325.9344 0004222 165.2674 194.8647 15.19670203542805

Отслеживайте SL-8 DEB в реальном времени с AllMySat

Download on the App Store